Weather History for Santa Maria, CA

Change the Weather History Date:

Saturday, April 14, 2012

  Actual Average Record
Temperature  
Mean Temperature 51 °F 55 °F  
Max Temperature 59 °F 67 °F 97 °F (1947)
Min Temperature 42 °F 44 °F 30 °F (1921)
Degree Days  
Heating Degree Days 14 10  
Month to date heating degree days 165 141  
Since 1 July heating degree days 2230 2314  
Cooling Degree Days 0 0  
Month to date cooling degree days 0 0  
Year to date cooling degree days 0 2  
Growing Degree Days 1 (Base 50)    
Moisture  
Dew Point 42 °F    
Average Humidity 75    
Maximum Humidity 93    
Minimum Humidity 57    
Precipitation  
Precipitation 0.03 in 0.04 in 0.84 in (1963)
Month to date precipitation 2.00 0.58  
Year to date precipitation 6.89 8.96  
Since 1 July precipitation 9.39 13.20  
Sea Level Pressure  
Sea Level Pressure 30.01 in    
Wind  
Wind Speed 11 mph (NNW)    
Max Wind Speed 28 mph    
Max Gust Speed 35 mph    
Visibility 9 miles    
Events      
T = Trace of Precipitation, MM = Missing Value Source: NWS Daily Summary

Daily Weather History Graph

Daily Weather History Graph

Search for Another Location

Airport:

Trip Planner

Search our weather history database for the weather conditions in past years. The results will help you decide how hot, cold, wet, or windy it might be!

Date:

Astronomy

Apr. 14, 2012 Rise Set
Actual Time 6:30 AM PDT 7:33 PM PDT
Civil Twilight 6:04 AM PDT 7:59 PM PDT
Nautical Twilight 5:33 AM PDT 8:30 PM PDT
Astronomical Twilight 5:01 AM PDT 9:02 PM PDT
Moon 2:42 AM PDT (4/14) 1:46 PM PDT (4/14)
Length of Visible Light 13h 55m
Length of Day
13h 03m
Last Quarter, 36% of the Moon is Illuminated
Apr 14
Last Quarter
Apr 21
New
Apr 29
First Quarter
May 5
Full
May 12
Last Quarter

Hourly Weather History & Observations

Time (PDT) Temp. Windchill Dew Point Humidity Pressure Visibility Wind Dir Wind Speed Gust Speed Precip Events Conditions
12:51 AM 45.0 °F 43.5 °F 39.9 °F 82% 29.94 in 10.0 mi North 3.5 mph - N/A   Partly Cloudy
1:11 AM 46.4 °F - 39.2 °F 76% 29.93 in 10.0 mi Calm Calm - N/A   Mostly Cloudy
1:28 AM 44.6 °F 43.1 °F 39.2 °F 81% 29.93 in 10.0 mi NE 3.5 mph - N/A   Overcast
1:47 AM 46.4 °F 45.2 °F 41.0 °F 81% 29.93 in 10.0 mi NNE 3.5 mph - N/A   Overcast
1:51 AM 46.0 °F 44.8 °F 39.9 °F 79% 29.94 in 10.0 mi NE 3.5 mph - N/A   Overcast
2:08 AM 44.6 °F 42.2 °F 39.2 °F 81% 29.93 in 10.0 mi ENE 4.6 mph - N/A   Mostly Cloudy
2:51 AM 46.0 °F 43.1 °F 41.0 °F 83% 29.94 in 10.0 mi North 5.8 mph - 0.02 in   Mostly Cloudy
3:51 AM 45.0 °F - 41.0 °F 86% 29.94 in 10.0 mi Calm Calm - N/A   Mostly Cloudy
4:51 AM 43.0 °F - 39.9 °F 89% 29.94 in 10.0 mi Calm Calm - 0.00 in   Scattered Clouds
5:03 AM 44.6 °F - 39.2 °F 81% 29.92 in 10.0 mi Calm Calm - N/A   Overcast
5:30 AM 44.6 °F 40.7 °F 39.2 °F 81% 29.92 in 10.0 mi NW 6.9 mph - N/A   Scattered Clouds
5:51 AM 46.0 °F 41.4 °F 41.0 °F 83% 29.94 in 10.0 mi NW 9.2 mph - N/A   Scattered Clouds
6:51 AM 44.1 °F 42.5 °F 39.0 °F 82% 29.97 in 9.0 mi NE 3.5 mph - N/A   Scattered Clouds
7:51 AM 48.0 °F - 41.0 °F 77% 29.99 in 9.0 mi NNW 3.5 mph - N/A   Scattered Clouds
8:51 AM 50.0 °F - 42.1 °F 74% 30.01 in 9.0 mi NNW 11.5 mph - N/A   Scattered Clouds
9:51 AM 53.1 °F - 42.1 °F 66% 30.01 in 10.0 mi NNW 8.1 mph - N/A   Mostly Cloudy
10:51 AM 57.0 °F - 43.0 °F 59% 30.03 in 10.0 mi NW 13.8 mph - 0.01 in   Mostly Cloudy
11:51 AM 55.9 °F - 42.1 °F 60% 30.03 in 10.0 mi NW 23.0 mph 28.8 mph N/A   Mostly Cloudy
12:42 PM 57.2 °F - 42.8 °F 59% 30.02 in 10.0 mi WNW 21.9 mph 26.5 mph N/A   Mostly Cloudy
12:51 PM 57.0 °F - 42.1 °F 57% 30.04 in 10.0 mi NW 18.4 mph 24.2 mph N/A   Mostly Cloudy
1:51 PM 57.9 °F - 42.1 °F 56% 30.04 in 10.0 mi NW 24.2 mph 31.1 mph N/A   Mostly Cloudy
2:51 PM 57.9 °F - 44.1 °F 60% 30.04 in 10.0 mi WNW 23.0 mph 29.9 mph N/A   Scattered Clouds
3:51 PM 55.9 °F - 44.1 °F 64% 30.04 in 9.0 mi WNW 25.3 mph 34.5 mph N/A   Scattered Clouds
4:51 PM 55.9 °F - 44.1 °F 64% 30.05 in 9.0 mi WNW 23.0 mph 31.1 mph N/A   Partly Cloudy
5:51 PM 55.9 °F - 45.0 °F 67% 30.06 in 8.0 mi WNW 21.9 mph 29.9 mph N/A   Overcast
6:51 PM 53.1 °F - 44.1 °F 71% 30.09 in 9.0 mi WNW 16.1 mph - N/A   Mostly Cloudy
7:51 PM 50.0 °F - 44.1 °F 80% 30.11 in 9.0 mi NNE 12.7 mph 25.3 mph N/A   Overcast
8:51 PM 48.9 °F - 44.1 °F 83% 30.12 in 8.0 mi WNW 8.1 mph - N/A   Clear
9:51 PM 46.9 °F - 44.1 °F 90% 30.14 in 7.0 mi WNW 6.9 mph - N/A   Clear
10:51 PM 46.0 °F - 43.0 °F 89% 30.15 in 6.0 mi Calm Calm - N/A   Clear
11:51 PM 46.0 °F - 43.0 °F 89% 30.16 in 6.0 mi Calm Calm - N/A   Clear